Location: Aiyekoto
(8.4333°N, 4.3667°E)
Time: 00:04:45
(UTC+00:00)

ARIANE 5 DEB (SYLDA) - Pass Details

Date: 07 June 2020
Orbit: 538 x 35718 km, 3.8° (Epoch: 13 July)

Event Time Altitude Azimuth Distance (km) Brightness Sun altitude
Exits shadow 03:45:13 42° 229° (SW) 1,433 3.9 -22.7°
Maximum altitude 03:46:57 59° 174° (S) 1,482 4.2 -22.3°
Drops below altitude 10° 04:08:41 10° 98° (E) 9,881 9.4 -17.6°
Sets 04:39:25 0° 95° (E) 18,668 11.2 -10.8°
